This is the latest recevied weather packets stored in our database for station/object SV1RVP-13. If no packets are shown the sender has not sent any weather packets the latest 10 day(s).
| Time | Temp. | Humidity | Pressure | Rain* | Wind** | Luminosity | Snow |
|---|---|---|---|---|---|---|---|
| 1777391314 | 23.33° C | 46% | 1015.1 hPa | 0 mm | - | - | - |
| 1777390717 | 23.33° C | 46% | 1015.1 hPa | 0 mm | - | - | - |
| 1777390120 | 22.78° C | 46% | 1015.2 hPa | 0 mm | - | - | - |
| 1777389510 | 22.78° C | 46% | 1015.1 hPa | 0 mm | - | - | - |
| 1777388909 | 23.33° C | 46% | 1015 hPa | 0 mm | - | - | - |
| 1777388324 | 23.89° C | 46% | 1015 hPa | 0 mm | - | - | - |
| 1777387713 | 23.33° C | 46% | 1015 hPa | 0 mm | - | - | - |
| 1777387117 | 23.89° C | 45% | 1015 hPa | 0 mm | - | - | - |
| 1777386518 | 23.89° C | 45% | 1015 hPa | 0 mm | - | - | - |
| 1777385908 | 23.89° C | 44% | 1015 hPa | 0 mm | - | - | - |
| 1777385306 | 23.89° C | 44% | 1015 hPa | 0 mm | - | - | - |
| 1777384729 | 24.44° C | 44% | 1014.9 hPa | 0 mm | - | - | - |
| 1777384123 | 23.89° C | 44% | 1015 hPa | 0 mm | - | - | - |
| 1777383524 | 23.89° C | 44% | 1015 hPa | 0 mm | - | - | - |
| 1777382928 | 23.89° C | 44% | 1015 hPa | 0 mm | - | - | - |
| 1777382322 | 23.89° C | 44% | 1015 hPa | 0 mm | - | - | - |
| 1777381721 | 24.44° C | 45% | 1015.1 hPa | 0 mm | - | - | - |
| 1777381136 | 24.44° C | 44% | 1015.1 hPa | 0 mm | - | - | - |
| 1777380509 | 23.89° C | 45% | 1015.3 hPa | 0 mm | - | - | - |
| 1777379913 | 23.89° C | 44% | 1015.4 hPa | 0 mm | - | - | - |
| 1777379332 | 23.89° C | 45% | 1015.6 hPa | 0 mm | - | - | - |
| 1777378706 | 23.89° C | 44% | 1015.7 hPa | 0 mm | - | - | - |
| 1777378123 | 23.89° C | 44% | 1015.8 hPa | 0 mm | - | - | - |
| 1777377505 | 23.89° C | 44% | 1015.8 hPa | 0 mm | - | - | - |
| 1777376909 | 23.89° C | 44% | 1015.9 hPa | 0 mm | - | - | - |
* Rain since midnight (hover to see other rain measurements)
** Current wind speed in m/s (hover to see current wind gust speed)